Lid_Strength_Index
-1 -1 -1 -1 -1 -1 -1 -1 -1 -1 -1 -1 -1 -1 -1 -1 -1 -1 -1 -1 -1 -1 -1 -1 -1 -0 2 5 6 0 -1 -1 -0 2 4 4 6 7 9 8 8 9 8 10 10 10 11
-1 -1 -1 -1 -1 -1 -1 -1 -1 -1 -1 -1 -1 -1 -1 -1 -1 -1 -1 -1 -1 -1 -1 -1 -1 -0 3 9 1 -0 -0 1 2 3 4 4 5 5 7 8 9 8 8 10 10 10 12
-1 -1 -1 -1 -0 -1 -1 -1 -1 -1 -1 -1 -1 -1 -1 -1 -1 -1 -1 -1 -1 -1 -1 -1 -1 1 5 6 1 0 0 2 2 2 5 3 3 5 6 8 7 7 10 10 11 11 12
-1 -1 -1 -0 -0 -0 -0 -1 -1 -1 -1 -1 -1 -1 -1 -1 -1 -1 -1 -1 -1 -1 -1 -1 -1 1 8 1 1 1 1 3 3 3 3 2 2 5 6 6 8 9 10 13 10 11 12
-1 -1 -1 -0 -1 -0 -0 -0 -1 -1 -1 -1 -1 -1 -1 -1 -1 -1 -1 -1 -1 -1 -1 -1 1 3 8 -0 3 2 1 3 4 3 3 2 3 6 7 10 12 10 15 13 12 11 13
-1 -1 -1 -0 0 -0 -0 -0 -0 -1 -1 -1 -1 -1 -1 -1 -1 -1 -1 -1 -1 -1 -0 -0 1 6 6 6 3 3 1 2 4 4 6 6 7 10 10 12 17 15 14 12 13 12 13
-1 -1 -1 -0 -0 -0 -0 -0 -0 -0 -1 -1 -1 -1 -1 -1 -1 -1 -0 1 5 6 4 7 6 7 5 4 1 3 2 3 4 6 10 8 11 14 12 10 10 11 13 13 12 11 13
-1 -1 -0 -0 0 -0 -0 -0 -0 -1 -1 -1 -1 -1 -1 -1 -1 -1 1 4 4 3 9 4 4 5 4 3 7 5 2 7 8 11 9 11 13 10 9 9 11 11 13 13 11 11 12
-1 -1 -0 -0 0 -0 -0 -0 -0 -0 -0 -1 -1 -1 -1 -1 -1 0 2 3 1 1 8 7 5 6 5 4 7 7 4 6 9 10 11 12 11 8 10 11 12 13 13 13 12 12 12
-0 -0 -0 -0 1 -0 -0 -0 -0 -0 -0 -0 -1 -1 -1 -1 2 3 4 1 0 1 12 11 9 6 5 5 9 4 3 6 8 11 10 11 9 10 11 12 11 15 11 12 12 13 17
-0 -0 -0 -0 -0 0 0 -0 -0 -0 -0 -0 -0 -1 -1 -1 3 5 2 -0 0 3 20 10 9 4 5 8 7 7 3 6 10 10 10 12 11 12 13 12 10 13 10 12 13 16 16
-0 -0 -0 0 0 0 -0 -0 -0 -0 -0 -0 -0 -1 -1 1 1 1 1 1 3 14 20 13 9 10 10 9 8 7 7 7 6 10 9 10 8 9 10 9 9 11 12 12 14 14 19
-0 -0 0 0 0 0 -0 -0 -0 -0 -0 -0 -0 -1 0 1 4 1 2 5 14 18 11 14 13 11 11 12 11 10 11 11 13 15 15 12 11 9 8 12 11 11 13 19 20 20 20
1 0 0 0 0 0 -0 -0 -0 -0 -0 -0 -0 -0 -0 0 1 3 5 12 18 14 14 11 11 11 13 11 11 11 12 13 11 11 14 16 18 12 9 11 13 12 13 18 23 22 19
-0 -0 0 0 0 0 -0 -0 -0 -0 -0 -0 -0 3 2 1 1 3 10 15 15 13 11 12 12 14 14 12 12 12 12 13 11 10 14 15 16 11 9 9 10 13 15 13 19 24 21
0 0 -0 0 0 -0 -0 -0 -0 -0 -0 -0 5 5 4 2 2 4 11 14 13 10 11 10 15 13 16 14 14 13 13 10 12 10 10 13 17 11 10 10 10 11 11 16 17 23 24
-0 -0 -0 -0 -0 -0 -0 -0 -0 -0 -0 0 5 9 3 2 3 8 14 13 11 9 10 12 13 14 13 14 13 14 13 10 10 10 10 13 15 15 11 13 14 13 13 13 14 17 21
-0 -0 -0 -0 -0 -0 -0 -0 -0 -0 -0 2 7 11 3 1 10 10 13 11 8 10 9 11 10 11 13 12 13 13 14 11 9 9 12 13 15 17 15 13 10 11 12 13 16 18 17
-0 -0 -0 -0 -0 -0 -0 -0 -0 -0 -0 5 10 8 2 3 12 13 10 11 9 11 12 12 12 10 10 12 14 12 11 10 9 10 12 12 16 18 17 15 13 13 12 11 13 15 17
-0 -0 -0 -0 -0 -0 -0 -0 -0 -0 -0 5 8 11 8 6 7 11 12 12 12 9 11 11 12 9 10 12 11 12 12 10 9 9 10 11 14 16 17 15 14 15 14 13 14 18 18
-0 -0 -0 -0 -0 -0 -0 -0 -0 -0 -0 5 9 10 9 12 10 10 11 11 12 13 10 10 12 11 11 13 12 12 11 10 9 9 11 12 17 15 14 14 13 13 13 12 13 13 14
0 0 -0 -0 -0 -0 -0 -0 -0 -0 -0 6 10 8 8 9 9 10 11 13 13 13 12 12 13 11 10 12 12 13 11 11 11 11 11 12 17 16 18 14 13 13 12 11 12 12 13
1 0 -0 -0 -0 -0 -0 -0 -0 -0 1 7 7 7 8 9 10 12 13 12 12 11 11 10 10 11 11 10 9 8 8 10 9 10 12 14 16 17 21 16 15 18 14 13 12 11 12
1 1 -0 -0 -0 -0 -0 -0 -0 -0 1 5 7 7 9 12 10 12 11 10 12 12 13 10 9 11 8 7 7 8 10 10 9 10 9 15 15 17 19 16 22 16 12 11 11 11 10
0 0 -0 -0 -0 -0 -0 -0 -0 1 0 5 6 7 8 11 11 10 11 11 12 11 13 12 10 8 7 9 13 15 15 14 15 13 11 12 15 17 19 23 19 17 15 13 13 13 10
1 0 0 -0 -0 -0 -0 -0 -0 0 1 5 7 6 6 11 11 10 11 11 13 13 13 13 10 8 7 11 15 18 18 17 17 16 14 12 12 16 18 20 22 17 14 11 12 16 11
1 1 -0 -0 -0 -0 -0 -0 -0 -0 0 5 7 5 7 10 10 11 12 12 11 12 13 14 13 11 11 14 16 17 18 16 17 18 17 16 15 17 17 20 18 16 14 11 19 16 13
0 1 -0 -0 -0 -0 -0 0 0 0 1 5 7 5 8 10 11 10 11 13 13 12 13 13 12 13 13 14 15 15 17 18 19 16 15 16 17 17 18 21 19 14 13 14 13 14 14
-0 0 0 -0 -0 -0 -0 -0 0 0 1 3 8 5 5 10 10 9 10 10 12 13 14 12 13 13 11 14 14 15 20 18 19 18 14 16 14 16 15 15 14 14 13 13 12 13 13